EW5697 Weather Reports


Display with metric or nautical units.
time (UTC)temp
F
wind
direction
speed
MPH
gust
MPH
rain 1hr
in
rain 24hr
in
rain mn
in
humidity
%
barometer
mb
20260904180056 51 136 0.0 0.0 0.00 0.13 0.01 89 1019.1
20260904174552 50 202 0.0 1.0 0.00 0.15 0.01 91 1019.1
20260904173046 49 159 0.0 1.0 0.00 0.15 0.01 93 1018.9
20260904171551 48 202 0.0 0.0 0.00 0.15 0.01 95 1018.8
20260904170040 47 237 0.0 0.0 0.00 0.15 0.01 95 1018.7
20260904164536 46 141 0.0 0.0 0.00 0.15 0.01 95 1018.5
20260904163033 45 196 0.0 1.0 0.00 0.15 0.01 95 1018.6
20260904161531 45 219 0.0 0.0 0.00 0.15 0.01 95 1018.6
20260904160044 44 168 0.0 0.0 0.00 0.15 0.01 95 1018.7
20260904154533 43 185 0.0 0.0 0.00 0.17 0.01 95 1018.7
20260904153024 42 143 0.0 0.0 0.00 0.17 0.01 95 1018.6
20260904151527 40 91 0.0 0.0 0.00 0.17 0.01 94 1018.6
20260904150037 39 91 0.0 0.0 0.00 0.17 0.01 94 1018.5
20260904144515 39 91 0.0 0.0 0.00 0.19 0.01 94 1018.2
20260904143012 39 91 0.0 0.0 0.00 0.19 0.01 94 1017.9
20260904141520 39 91 0.0 0.0 0.00 0.19 0.01 94 1017.6
20260904140012 39 91 0.0 0.0 0.00 0.19 0.01 94 1017.5
20260904134509 39 91 0.0 0.0 0.00 0.20 0.01 94 1017.5
20260904133008 39 91 0.0 0.0 0.00 0.20 0.01 94 1017.4
20260904131506 39 91 0.0 0.0 0.00 0.20 0.01 94 1017.5
20260904130005 39 91 0.0 0.0 0.00 0.20 0.01 94 1017.3
20260904124504 39 91 0.0 0.0 0.00 0.21 0.01 94 1017.3
20260904123003 39 91 0.0 0.0 0.00 0.21 0.01 94 1017.2
20260904121501 39 91 0.0 0.0 0.00 0.21 0.01 94 1017.2
20260904120059 39 91 0.0 0.0 0.00 0.21 0.01 94 1017.0
20260904114559 40 91 0.0 0.0 0.00 0.21 0.01 94 1017.0
20260904113056 40 91 0.0 0.0 0.00 0.21 0.01 94 1016.8
20260904111553 40 91 0.0 0.0 0.00 0.21 0.01 94 1016.8
20260904110053 41 91 0.0 0.0 0.00 0.21 0.01 94 1016.6
20260904104549 41 91 0.0 0.0 0.01 0.21 0.01 94 1016.5
20260904103049 41 91 0.0 0.0 0.01 0.21 0.01 94 1016.3
20260904101549 41 91 0.0 0.0 0.01 0.21 0.01 94 1016.3
20260904100047 41 91 0.0 0.0 0.01 0.21 0.01 94 1016.3
20260904094546 41 91 0.0 0.0 0.00 0.20 0.00 94 1016.4
20260904093049 41 91 0.0 0.0 0.00 0.20 0.00 94 1016.3
20260904091544 41 91 0.0 0.0 0.00 0.20 0.00 93 1016.4
20260904090043 41 91 0.0 0.0 0.00 0.20 0.00 93 1016.2
20260904084541 42 91 0.0 0.0 0.00 0.20 0.00 93 1016.2
20260904083040 42 91 0.0 0.0 0.00 0.20 0.00 93 1016.3
20260904081538 42 91 0.0 0.0 0.00 0.20 0.00 93 1016.3
20260904080036 43 91 0.0 0.0 0.00 0.20 0.00 93 1016.2
20260904074537 43 91 0.0 0.0 0.00 0.20 0.00 93 1016.1
20260904073035 43 91 0.0 0.0 0.00 0.20 0.00 93 1016.1
20260904071531 44 91 0.0 0.0 0.00 0.20 0.00 93 1016.0
20260904070029 44 91 0.0 0.0 0.00 0.20 0.00 93 1016.0
20260904064527 44 91 0.0 0.0 0.00 0.20 0.20 93 1015.8
20260904063034 45 91 0.0 0.0 0.00 0.20 0.20 93 1015.7
20260904061528 45 91 0.0 0.0 0.00 0.20 0.20 93 1015.7
20260904060025 45 91 0.0 0.0 0.00 0.20 0.20 93 1015.6
20260904054525 45 91 0.0 0.0 0.00 0.20 0.20 93 1015.7
20260904053027 45 91 0.0 0.0 0.00 0.20 0.20 93 1015.7
20260904051549 45 91 0.0 0.0 0.00 0.20 0.20 93 1015.5
20260904050021 45 91 0.0 0.0 0.00 0.20 0.20 93 1015.6
20260904044519 46 91 0.0 0.0 0.00 0.20 0.20 93 1015.5
20260904043018 46 91 0.0 0.0 0.00 0.20 0.20 92 1015.4
20260904041520 46 91 0.0 0.0 0.00 0.20 0.20 92 1015.3
20260904040022 47 91 0.0 0.0 0.00 0.20 0.20 92 1015.2
20260904034514 47 91 0.0 0.0 0.00 0.20 0.20 92 1015.2
20260904033012 48 91 0.0 0.0 0.00 0.20 0.20 92 1015.1
20260904031510 49 91 0.0 0.0 0.00 0.20 0.20 92 1014.7
20260904030008 50 91 0.0 0.0 0.00 0.20 0.20 92 1014.7
20260904024509 50 91 0.0 0.0 0.00 0.22 0.20 92 1014.8
20260904023008 50 91 0.0 0.0 0.00 0.22 0.20 92 1014.9
20260904021507 50 91 0.0 0.0 0.00 0.22 0.20 92 1014.8
20260904020007 51 91 0.0 0.0 0.00 0.22 0.20 92 1014.7
20260904014507 51 91 0.0 0.0 0.00 0.23 0.20 92 1014.7
20260904013007 51 87 0.0 0.0 0.00 0.23 0.20 92 1014.6
20260904011506 51 87 0.0 0.0 0.01 0.23 0.20 92 1014.5
20260904010011 52 88 0.0 0.0 0.01 0.23 0.20 92 1014.5
20260904004505 52 47 0.0 0.0 0.01 0.24 0.20 93 1014.4
20260904003003 52 85 0.0 0.0 0.02 0.24 0.20 93 1014.2
20260904001501 52 52 0.0 0.0 0.03 0.23 0.19 93 1014.3
20260903234556 53 338 0.0 0.0 0.03 0.23 0.19 93 1014.2
20260903233103 52 330 0.0 0.0 0.02 0.22 0.18 93 1014.3
20260903231552 53 326 0.0 0.0 0.00 0.20 0.16 93 1014.2
20260903230050 53 293 0.0 0.0 0.00 0.20 0.16 93 1014.2
20260903224549 53 258 0.0 0.0 0.00 0.20 0.16 93 1014.3
20260903223047 52 258 0.0 0.0 0.01 0.20 0.16 93 1014.4
20260903221547 52 258 0.0 0.0 0.01 0.20 0.16 93 1014.6
20260903220051 52 256 0.0 0.0 0.01 0.20 0.16 93 1014.5
20260903214545 52 256 0.0 0.0 0.02 0.20 0.16 93 1014.5
20260903213045 52 256 0.0 0.0 0.02 0.19 0.15 92 1014.7
20260903211545 53 238 0.0 0.0 0.03 0.19 0.15 93 1014.7
20260903210057 52 80 0.0 1.0 0.03 0.19 0.15 93 1014.6
20260903204602 52 249 0.0 0.0 0.02 0.18 0.14 92 1014.6
20260903203044 52 202 0.0 1.0 0.02 0.17 0.13 93 1014.8
20260903201542 52 195 0.0 0.0 0.02 0.16 0.12 93 1014.7
20260903200046 52 126 0.0 3.0 0.02 0.16 0.12 93 1014.6
20260903194539 52 165 0.0 0.0 0.03 0.16 0.12 93 1014.6
20260903193037 52 164 0.0 8.0 0.02 0.15 0.11 93 1014.7
20260903191536 51 137 0.0 1.0 0.02 0.14 0.10 93 1014.8
20260903190034 52 156 0.0 1.0 0.02 0.14 0.10 93 1015.0
20260903184534 52 181 0.0 3.0 0.02 0.13 0.09 93 1015.0
20260903183033 52 129 0.0 3.0 0.03 0.13 0.09 93 1015.1